Погода в Яковлевской

Россия / Архангельская область     62°31′27″N   43°39′55″E
темп.,
°C
ветер,
м/с
пор.,
м/с
влажн.,
%
обл.,
%
осадки,
мм/ч
давл.,
гПа
погр.,
м
3 августа, вт
вт300:00+15вюв2587100 0.0 100694
03:00+14вюв411905 0.0 1004265
06:00+18вюв41477100 0.0 1002468
09:00+19юв5129198 0.8 999617
12:00+22ю5117945 0.3 9991233
15:00+23юз71355100 1.4 10011579
18:00+19юз51167100 0.0 10021246
21:00+15ююв26830 0.0 1004119
4 августа, ср
ср400:00+13ююв27900 0.0 1005143
03:00+12ю399135 0.0 1005239
06:00+15ююз411750 0.0 1006516
09:00+19юз585942 0.0 10071369
12:00+19зюз585477 0.0 10081535
15:00+19зюз684448 0.0 10101922
18:00+19юз38465 0.0 10101608
21:00+13ююз25705 0.0 101190
5 августа, чт
чт500:00+11сз310732 0.0 1013288
03:00+8зсз29880 0.0 1015292
06:00+10з257413 0.0 1017225
09:00+16з36505 0.0 10181455
12:00+19зсз473844 0.0 10172246
15:00+18ссз4640100 0.0 10181518
18:00+17сз244772 0.0 10181185
21:00+12сз1166100 0.0 101911
6 августа, пт
пт600:00+13всв2569100 0.0 1020152
03:00+11св237799 0.0 102181
06:00+11св23759 0.0 1021163
09:00+16св22515 0.0 10211215
12:00+18с2242100 0.0 10212140
15:00+17св334793 0.0 10211009
18:00+17в12455 0.0 1020955
21:00+11юз116939 0.0 102110
7 августа, сб
сб700:00+12зсз116254 0.0 102011
03:00+9сз11755 0.0 102110
06:00+11с01675 0.0 102279
09:00+18ссз11450 0.0 1021713
12:00+22с12389 0.0 10201950
15:00+22св1234100 0.0 10192351
18:00+20всв1145100 0.0 101917
21:00+16всв2452100 0.0 101993